QPF
0.00 0.01 0.01 0.00 0.00 0.00 0.00 0.00 0.01 0.02 0.03 0.04 0.03 0.01 0.02 0.02 0.01 0.00 0.00 0.00 0.00 0.00 0.00 0.00 0.00 0.00 0.00 0.00 0.00 0.00 0.00 0.00 0.01 0.01 0.01 0.02 0.03 0.04 0.04 0.04 0.04 0.05 0.05 0.05
0.00 0.00 0.00 0.00 0.00 0.00 0.00 0.00 0.00 0.01 0.03 0.02 0.01 0.00 0.01 0.01 0.00 0.00 0.00 0.00 0.00 0.00 0.00 0.00 0.00 0.00 0.00 0.00 0.00 0.00 0.01 0.01 0.01 0.01 0.02 0.02 0.03 0.03 0.03 0.03 0.03 0.04 0.04 0.04
0.00 0.00 0.00 0.00 0.00 0.00 0.00 0.00 0.00 0.01 0.01 0.02 0.01 0.00 0.00 0.00 0.00 0.00 0.00 0.00 0.00 0.00 0.00 0.00 0.00 0.00 0.00 0.00 0.00 0.01 0.01 0.01 0.01 0.02 0.03 0.03 0.03 0.03 0.03 0.04 0.04 0.05 0.05 0.05
0.00 0.00 0.00 0.00 0.00 0.00 0.00 0.00 0.00 0.00 0.00 0.01 0.02 0.01 0.00 0.00 0.00 0.00 0.00 0.00 0.00 0.00 0.01 0.01 0.01 0.00 0.00 0.00 0.01 0.01 0.01 0.01 0.01 0.02 0.03 0.04 0.04 0.04 0.04 0.05 0.05 0.05 0.04 0.04
0.00 0.00 0.00 0.01 0.00 0.00 0.00 0.00 0.00 0.00 0.00 0.00 0.01 0.02 0.01 0.00 0.00 0.00 0.00 0.00 0.01 0.01 0.01 0.01 0.02 0.01 0.01 0.01 0.01 0.01 0.01 0.01 0.01 0.01 0.03 0.04 0.05 0.05 0.05 0.05 0.05 0.05 0.04 0.03
0.00 0.00 0.01 0.01 0.00 0.00 0.00 0.00 0.00 0.00 0.01 0.02 0.01 0.01 0.02 0.01 0.00 0.00 0.00 0.00 0.01 0.01 0.01 0.01 0.02 0.02 0.02 0.02 0.03 0.02 0.01 0.01 0.01 0.02 0.04 0.05 0.05 0.06 0.05 0.04 0.04 0.05 0.04 0.04
0.00 0.01 0.01 0.01 0.00 0.00 0.01 0.01 0.00 0.00 0.00 0.00 0.00 0.01 0.01 0.01 0.01 0.01 0.01 0.01 0.01 0.01 0.01 0.01 0.01 0.02 0.02 0.02 0.02 0.02 0.02 0.02 0.02 0.04 0.05 0.06 0.06 0.06 0.05 0.04 0.03 0.03 0.04 0.03
0.00 0.01 0.01 0.01 0.00 0.01 0.01 0.00 0.00 0.00 0.00 0.01 0.01 0.01 0.01 0.01 0.02 0.02 0.02 0.02 0.02 0.02 0.02 0.02 0.02 0.02 0.02 0.02 0.02 0.03 0.03 0.04 0.04 0.05 0.09 0.10 0.07 0.05 0.06 0.04 0.03 0.03 0.03 0.03
0.01 0.01 0.01 0.00 0.00 0.00 0.01 0.01 0.00 0.01 0.01 0.01 0.02 0.03 0.04 0.04 0.04 0.04 0.06 0.05 0.03 0.03 0.03 0.03 0.03 0.03 0.03 0.04 0.04 0.04 0.05 0.06 0.07 0.08 0.09 0.10 0.08 0.06 0.06 0.04 0.03 0.02 0.02 0.02
0.01 0.01 0.00 0.00 0.00 0.01 0.01 0.01 0.01 0.01 0.01 0.02 0.03 0.05 0.06 0.05 0.04 0.03 0.04 0.04 0.05 0.05 0.06 0.09 0.05 0.04 0.04 0.04 0.05 0.06 0.06 0.05 0.06 0.06 0.07 0.08 0.08 0.07 0.05 0.03 0.02 0.02 0.01 0.01
0.02 0.04 0.02 0.01 0.01 0.02 0.02 0.01 0.01 0.01 0.01 0.02 0.02 0.03 0.03 0.03 0.02 0.04 0.05 0.05 0.05 0.05 0.05 0.07 0.06 0.07 0.07 0.07 0.06 0.07 0.08 0.07 0.06 0.09 0.10 0.10 0.10 0.07 0.05 0.04 0.03 0.02 0.01 0.01
0.03 0.03 0.02 0.02 0.02 0.02 0.02 0.01 0.01 0.01 0.01 0.01 0.02 0.03 0.03 0.03 0.03 0.04 0.05 0.08 0.08 0.06 0.06 0.06 0.07 0.07 0.06 0.06 0.06 0.06 0.07 0.09 0.06 0.06 0.08 0.10 0.10 0.09 0.08 0.06 0.06 0.05 0.03 0.01
0.02 0.01 0.01 0.02 0.02 0.02 0.01 0.01 0.01 0.01 0.01 0.02 0.02 0.03 0.03 0.03 0.04 0.06 0.07 0.08 0.09 0.06 0.06 0.06 0.07 0.08 0.09 0.08 0.07 0.08 0.08 0.11 0.11 0.08 0.05 0.06 0.06 0.06 0.06 0.05 0.05 0.04 0.02 0.01
0.02 0.02 0.02 0.02 0.02 0.01 0.00 0.01 0.01 0.01 0.02 0.03 0.03 0.03 0.04 0.03 0.03 0.03 0.05 0.08 0.09 0.08 0.06 0.06 0.09 0.13 0.13 0.09 0.06 0.03 0.03 0.04 0.05 0.04 0.03 0.03 0.04 0.04 0.04 0.04 0.04 0.02 0.02 0.02
0.02 0.02 0.02 0.02 0.02 0.02 0.01 0.01 0.01 0.02 0.02 0.03 0.03 0.03 0.03 0.03 0.03 0.03 0.03 0.05 0.06 0.07 0.08 0.07 0.08 0.11 0.08 0.05 0.04 0.03 0.02 0.02 0.03 0.04 0.03 0.03 0.03 0.03 0.03 0.03 0.02 0.02 0.03 0.05
0.03 0.03 0.02 0.02 0.03 0.02 0.02 0.02 0.02 0.02 0.02 0.03 0.03 0.04 0.04 0.03 0.03 0.04 0.04 0.03 0.04 0.05 0.06 0.08 0.07 0.07 0.05 0.04 0.04 0.03 0.02 0.02 0.03 0.04 0.03 0.03 0.03 0.03 0.03 0.03 0.02 0.01 0.01 0.02
0.02 0.02 0.02 0.02 0.02 0.03 0.03 0.03 0.03 0.03 0.02 0.03 0.03 0.04 0.05 0.05 0.05 0.05 0.04 0.04 0.04 0.03 0.04 0.08 0.09 0.06 0.04 0.03 0.02 0.02 0.02 0.03 0.03 0.02 0.02 0.01 0.02 0.02 0.03 0.02 0.02 0.01 0.01 0.01
0.01 0.02 0.02 0.02 0.02 0.02 0.03 0.03 0.02 0.03 0.04 0.04 0.03 0.03 0.04 0.06 0.07 0.07 0.06 0.05 0.04 0.04 0.05 0.06 0.07 0.05 0.03 0.02 0.02 0.02 0.02 0.02 0.02 0.02 0.02 0.02 0.02 0.02 0.03 0.04 0.04 0.03 0.02 0.02
0.01 0.01 0.01 0.01 0.01 0.02 0.02 0.02 0.02 0.02 0.03 0.03 0.03 0.05 0.06 0.05 0.06 0.07 0.07 0.06 0.05 0.05 0.05 0.05 0.05 0.05 0.04 0.02 0.02 0.02 0.01 0.01 0.01 0.02 0.02 0.02 0.02 0.02 0.02 0.03 0.05 0.05 0.04 0.03
0.01 0.01 0.01 0.01 0.01 0.01 0.02 0.02 0.02 0.03 0.03 0.04 0.05 0.05 0.06 0.06 0.07 0.06 0.04 0.04 0.04 0.04 0.03 0.04 0.04 0.05 0.06 0.05 0.03 0.02 0.02 0.01 0.01 0.01 0.01 0.02 0.02 0.02 0.03 0.03 0.03 0.03 0.03 0.03
0.00 0.01 0.01 0.00 0.01 0.01 0.01 0.02 0.03 0.03 0.03 0.03 0.04 0.04 0.04 0.04 0.05 0.04 0.03 0.03 0.03 0.03 0.03 0.04 0.07 0.08 0.09 0.07 0.05 0.04 0.03 0.03 0.02 0.02 0.02 0.02 0.02 0.02 0.03 0.02 0.03 0.03 0.03 0.02
0.01 0.01 0.01 0.01 0.01 0.01 0.02 0.03 0.03 0.03 0.03 0.03 0.03 0.03 0.03 0.04 0.03 0.03 0.03 0.03 0.03 0.03 0.03 0.04 0.06 0.08 0.08 0.07 0.05 0.04 0.04 0.04 0.04 0.04 0.03 0.03 0.03 0.03 0.02 0.03 0.03 0.03 0.02 0.01
0.01 0.01 0.01 0.01 0.02 0.03 0.03 0.04 0.04 0.04 0.05 0.05 0.05 0.05 0.04 0.04 0.03 0.04 0.03 0.03 0.02 0.03 0.02 0.02 0.02 0.03 0.03 0.04 0.03 0.03 0.04 0.04 0.04 0.04 0.04 0.04 0.04 0.04 0.04 0.04 0.03 0.02 0.02 0.02
0.03 0.02 0.03 0.03 0.04 0.04 0.05 0.05 0.04 0.05 0.05 0.06 0.06 0.05 0.05 0.04 0.03 0.03 0.04 0.04 0.04 0.03 0.01 0.01 0.01 0.01 0.01 0.02 0.02 0.03 0.03 0.03 0.03 0.04 0.04 0.04 0.04 0.04 0.04 0.04 0.02 0.01 0.01 0.01
0.03 0.03 0.04 0.06 0.06 0.05 0.04 0.04 0.04 0.04 0.04 0.04 0.04 0.04 0.05 0.04 0.03 0.04 0.05 0.04 0.03 0.02 0.01 0.01 0.01 0.01 0.01 0.01 0.02 0.03 0.03 0.03 0.04 0.05 0.05 0.05 0.04 0.04 0.03 0.03 0.03 0.03 0.02 0.02
0.04 0.05 0.06 0.06 0.06 0.05 0.04 0.03 0.03 0.03 0.03 0.04 0.04 0.04 0.04 0.03 0.03 0.02 0.03 0.02 0.02 0.02 0.01 0.02 0.02 0.02 0.02 0.02 0.02 0.02 0.03 0.03 0.03 0.04 0.05 0.04 0.04 0.03 0.03 0.02 0.02 0.03 0.03 0.03
0.06 0.06 0.06 0.06 0.06 0.04 0.03 0.03 0.03 0.03 0.03 0.04 0.04 0.04 0.03 0.02 0.02 0.02 0.02 0.01 0.01 0.01 0.01 0.01 0.02 0.02 0.02 0.02 0.02 0.02 0.02 0.02 0.02 0.02 0.02 0.02 0.02 0.03 0.03 0.03 0.03 0.03 0.03 0.03
MSLP
1002.98 1003.12 1003.21 1003.27 1003.31 1003.35 1003.42 1003.53 1003.71 1003.96 1004.31 1004.74 1005.26 1005.84 1006.45 1007.07 1007.66 1008.18 1008.61 1008.93 1009.13 1009.22 1009.22 1009.16 1009.08 1009.00 1008.96 1008.98 1009.08 1009.24 1009.48 1009.76 1010.09 1010.44 1010.80 1011.16 1011.50 1011.82 1012.10 1012.35 1012.56 1012.73 1012.85 1012.95
1003.61 1003.60 1003.48 1003.29 1003.05 1002.80 1002.61 1002.52 1002.57 1002.79 1003.18 1003.74 1004.44 1005.24 1006.08 1006.90 1007.66 1008.32 1008.84 1009.22 1009.46 1009.60 1009.65 1009.66 1009.66 1009.69 1009.76 1009.89 1010.08 1010.32 1010.61 1010.92 1011.26 1011.60 1011.94 1012.29 1012.61 1012.92 1013.20 1013.44 1013.64 1013.80 1013.90 1013.96
1004.21 1004.07 1003.78 1003.38 1002.89 1002.41 1001.99 1001.72 1001.65 1001.82 1002.23 1002.88 1003.71 1004.66 1005.66 1006.63 1007.52 1008.27 1008.86 1009.28 1009.56 1009.74 1009.85 1009.95 1010.06 1010.21 1010.41 1010.68 1010.98 1011.32 1011.67 1012.03 1012.37 1012.71 1013.03 1013.33 1013.63 1013.91 1014.17 1014.40 1014.59 1014.72 1014.81 1014.86
1004.54 1004.30 1003.89 1003.33 1002.68 1002.02 1001.45 1001.05 1000.89 1001.02 1001.45 1002.15 1003.08 1004.14 1005.25 1006.33 1007.30 1008.11 1008.75 1009.21 1009.53 1009.75 1009.92 1010.10 1010.32 1010.59 1010.93 1011.32 1011.75 1012.18 1012.60 1012.99 1013.34 1013.65 1013.94 1014.20 1014.46 1014.70 1014.93 1015.13 1015.31 1015.44 1015.53 1015.57
1004.41 1004.11 1003.63 1002.99 1002.25 1001.50 1000.85 1000.39 1000.19 1000.32 1000.78 1001.53 1002.53 1003.68 1004.88 1006.03 1007.07 1007.93 1008.61 1009.10 1009.45 1009.72 1009.95 1010.21 1010.52 1010.90 1011.35 1011.85 1012.37 1012.88 1013.34 1013.76 1014.10 1014.39 1014.64 1014.85 1015.06 1015.26 1015.46 1015.64 1015.81 1015.95 1016.05 1016.10
1003.78 1003.45 1002.94 1002.28 1001.53 1000.78 1000.12 999.67 999.50 999.66 1000.16 1000.98 1002.05 1003.27 1004.54 1005.76 1006.85 1007.76 1008.47 1009.01 1009.40 1009.71 1010.00 1010.31 1010.70 1011.16 1011.69 1012.26 1012.85 1013.40 1013.90 1014.32 1014.65 1014.91 1015.12 1015.29 1015.46 1015.62 1015.80 1015.98 1016.15 1016.30 1016.42 1016.51
1002.77 1002.42 1001.92 1001.29 1000.58 999.88 999.29 998.90 998.79 999.02 999.59 1000.47 1001.60 1002.89 1004.22 1005.49 1006.64 1007.60 1008.37 1008.95 1009.38 1009.74 1010.08 1010.44 1010.87 1011.38 1011.95 1012.57 1013.18 1013.76 1014.26 1014.68 1015.00 1015.24 1015.42 1015.57 1015.71 1015.86 1016.03 1016.21 1016.40 1016.58 1016.74 1016.86
1001.62 1001.26 1000.79 1000.21 999.58 998.97 998.47 998.17 998.15 998.45 999.08 1000.02 1001.21 1002.54 1003.92 1005.24 1006.44 1007.45 1008.27 1008.90 1009.39 1009.79 1010.17 1010.57 1011.03 1011.55 1012.14 1012.76 1013.37 1013.95 1014.45 1014.86 1015.17 1015.41 1015.58 1015.73 1015.87 1016.03 1016.21 1016.42 1016.65 1016.87 1017.07 1017.23
1000.64 1000.27 999.82 999.30 998.75 998.23 997.83 997.62 997.68 998.04 998.72 999.69 1000.90 1002.24 1003.64 1004.99 1006.23 1007.29 1008.16 1008.85 1009.39 1009.84 1010.25 1010.67 1011.14 1011.66 1012.24 1012.84 1013.44 1013.99 1014.48 1014.89 1015.21 1015.45 1015.64 1015.81 1015.99 1016.18 1016.40 1016.66 1016.93 1017.20 1017.44 1017.65
1000.08 999.70 999.27 998.80 998.32 997.88 997.55 997.41 997.51 997.89 998.57 999.53 1000.71 1002.04 1003.42 1004.77 1006.02 1007.11 1008.02 1008.76 1009.36 1009.85 1010.30 1010.73 1011.20 1011.71 1012.25 1012.82 1013.38 1013.91 1014.39 1014.79 1015.13 1015.40 1015.63 1015.85 1016.07 1016.32 1016.60 1016.91 1017.23 1017.55 1017.84 1018.09
1000.06 999.67 999.26 998.83 998.40 998.02 997.73 997.61 997.70 998.06 998.69 999.58 1000.69 1001.95 1003.27 1004.59 1005.82 1006.93 1007.87 1008.66 1009.30 1009.83 1010.31 1010.76 1011.21 1011.69 1012.20 1012.73 1013.25 1013.75 1014.20 1014.61 1014.96 1015.27 1015.55 1015.82 1016.11 1016.42 1016.76 1017.12 1017.50 1017.87 1018.20 1018.48
1000.54 1000.16 999.77 999.38 998.98 998.62 998.34 998.20 998.25 998.54 999.07 999.85 1000.84 1001.99 1003.22 1004.47 1005.67 1006.77 1007.73 1008.55 1009.24 1009.81 1010.31 1010.77 1011.21 1011.66 1012.13 1012.60 1013.08 1013.54 1013.97 1014.37 1014.73 1015.07 1015.40 1015.72 1016.07 1016.43 1016.83 1017.24 1017.66 1018.06 1018.43 1018.73
1001.27 1000.93 1000.59 1000.23 999.86 999.51 999.22 999.04 999.02 999.20 999.62 1000.26 1001.11 1002.13 1003.26 1004.43 1005.58 1006.66 1007.64 1008.48 1009.20 1009.81 1010.34 1010.80 1011.24 1011.65 1012.07 1012.49 1012.91 1013.33 1013.73 1014.11 1014.47 1014.83 1015.18 1015.54 1015.93 1016.33 1016.76 1017.20 1017.64 1018.06 1018.45 1018.77
1001.96 1001.69 1001.41 1001.11 1000.77 1000.44 1000.13 999.91 999.83 999.91 1000.21 1000.72 1001.44 1002.33 1003.35 1004.44 1005.55 1006.61 1007.59 1008.47 1009.23 1009.87 1010.42 1010.89 1011.31 1011.70 1012.07 1012.44 1012.80 1013.16 1013.52 1013.87 1014.22 1014.57 1014.93 1015.30 1015.70 1016.11 1016.54 1016.99 1017.43 1017.85 1018.23 1018.56
1002.31 1002.15 1001.96 1001.73 1001.45 1001.15 1000.85 1000.61 1000.48 1000.50 1000.70 1001.11 1001.72 1002.52 1003.46 1004.49 1005.56 1006.62 1007.61 1008.51 1009.30 1009.98 1010.55 1011.03 1011.44 1011.80 1012.13 1012.44 1012.75 1013.06 1013.37 1013.68 1014.00 1014.33 1014.67 1015.03 1015.41 1015.81 1016.22 1016.64 1017.05 1017.45 1017.82 1018.13
1002.15 1002.11 1002.03 1001.89 1001.70 1001.45 1001.20 1000.98 1000.84 1000.83 1000.99 1001.35 1001.90 1002.65 1003.54 1004.54 1005.59 1006.65 1007.66 1008.59 1009.41 1010.12 1010.71 1011.20 1011.60 1011.94 1012.24 1012.51 1012.76 1013.02 1013.28 1013.56 1013.84 1014.14 1014.46 1014.79 1015.13 1015.49 1015.86 1016.24 1016.61 1016.96 1017.28 1017.57
1001.45 1001.54 1001.58 1001.55 1001.45 1001.30 1001.11 1000.95 1000.85 1000.87 1001.04 1001.39 1001.95 1002.68 1003.56 1004.56 1005.62 1006.68 1007.71 1008.67 1009.51 1010.24 1010.85 1011.35 1011.75 1012.07 1012.35 1012.59 1012.81 1013.03 1013.26 1013.51 1013.76 1014.03 1014.32 1014.61 1014.92 1015.23 1015.55 1015.87 1016.17 1016.47 1016.74 1016.98
1000.34 1000.54 1000.70 1000.79 1000.80 1000.74 1000.66 1000.58 1000.56 1000.65 1000.88 1001.28 1001.87 1002.63 1003.53 1004.55 1005.62 1006.70 1007.74 1008.71 1009.57 1010.31 1010.93 1011.43 1011.83 1012.15 1012.41 1012.64 1012.85 1013.06 1013.28 1013.51 1013.75 1014.01 1014.27 1014.54 1014.81 1015.08 1015.34 1015.59 1015.84 1016.07 1016.28 1016.47
999.05 999.35 999.61 999.80 999.91 999.96 999.98 1000.01 1000.09 1000.28 1000.60 1001.08 1001.73 1002.54 1003.48 1004.52 1005.60 1006.69 1007.73 1008.70 1009.56 1010.29 1010.90 1011.40 1011.80 1012.12 1012.39 1012.63 1012.85 1013.07 1013.29 1013.53 1013.78 1014.04 1014.29 1014.55 1014.79 1015.03 1015.25 1015.45 1015.63 1015.80 1015.95 1016.08
997.84 998.22 998.55 998.81 999.00 999.15 999.26 999.40 999.60 999.89 1000.31 1000.88 1001.60 1002.47 1003.44 1004.50 1005.58 1006.66 1007.69 1008.63 1009.46 1010.18 1010.77 1011.26 1011.66 1011.99 1012.27 1012.53 1012.77 1013.02 1013.27 1013.54 1013.81 1014.08 1014.34 1014.59 1014.83 1015.04 1015.23 1015.39 1015.53 1015.64 1015.73 1015.80
996.90 997.32 997.69 998.00 998.25 998.46 998.66 998.89 999.19 999.58 1000.09 1000.75 1001.54 1002.45 1003.45 1004.51 1005.58 1006.63 1007.62 1008.52 1009.31 1009.99 1010.56 1011.04 1011.43 1011.77 1012.07 1012.35 1012.63 1012.91 1013.19 1013.49 1013.79 1014.08 1014.35 1014.61 1014.84 1015.04 1015.21 1015.34 1015.45 1015.52 1015.57 1015.60
996.29 996.72 997.11 997.44 997.72 997.97 998.24 998.54 998.91 999.39 999.98 1000.70 1001.55 1002.49 1003.50 1004.55 1005.59 1006.59 1007.53 1008.38 1009.12 1009.76 1010.30 1010.76 1011.15 1011.50 1011.82 1012.12 1012.43 1012.74 1013.06 1013.37 1013.69 1013.99 1014.28 1014.53 1014.76 1014.95 1015.10 1015.22 1015.30 1015.35 1015.38 1015.38
995.94 996.37 996.75 997.08 997.38 997.66 997.96 998.32 998.75 999.29 999.95 1000.72 1001.60 1002.56 1003.57 1004.59 1005.59 1006.55 1007.43 1008.23 1008.92 1009.52 1010.03 1010.48 1010.87 1011.22 1011.56 1011.89 1012.21 1012.54 1012.87 1013.20 1013.51 1013.81 1014.08 1014.33 1014.53 1014.71 1014.85 1014.95 1015.03 1015.07 1015.09 1015.09
995.73 996.15 996.51 996.84 997.13 997.43 997.76 998.16 998.64 999.23 999.94 1000.74 1001.65 1002.61 1003.60 1004.60 1005.57 1006.47 1007.31 1008.05 1008.71 1009.28 1009.77 1010.21 1010.61 1010.97 1011.32 1011.66 1012.00 1012.33 1012.65 1012.97 1013.26 1013.53 1013.77 1013.98 1014.17 1014.32 1014.44 1014.53 1014.61 1014.66 1014.69 1014.70
995.51 995.92 996.27 996.58 996.88 997.19 997.55 997.98 998.51 999.14 999.88 1000.71 1001.62 1002.58 1003.56 1004.53 1005.46 1006.33 1007.12 1007.84 1008.47 1009.02 1009.52 1009.96 1010.37 1010.75 1011.12 1011.46 1011.80 1012.12 1012.43 1012.71 1012.96 1013.19 1013.38 1013.55 1013.69 1013.81 1013.91 1014.00 1014.08 1014.15 1014.21 1014.25
995.19 995.59 995.94 996.25 996.56 996.89 997.28 997.75 998.31 998.98 999.74 1000.59 1001.51 1002.46 1003.42 1004.36 1005.26 1006.09 1006.86 1007.55 1008.17 1008.73 1009.24 1009.70 1010.13 1010.54 1010.92 1011.28 1011.61 1011.92 1012.20 1012.44 1012.64 1012.82 1012.96 1013.07 1013.17 1013.27 1013.35 1013.44 1013.53 1013.63 1013.72 1013.81
994.77 995.17 995.53 995.85 996.18 996.55 996.97 997.48 998.08 998.77 999.56 1000.42 1001.33 1002.26 1003.19 1004.10 1004.96 1005.77 1006.51 1007.19 1007.81 1008.37 1008.90 1009.39 1009.85 1010.28 1010.69 1011.06 1011.40 1011.70 1011.95 1012.16 1012.33 1012.45 1012.55 1012.63 1012.69 1012.76 1012.84 1012.94 1013.05 1013.19 1013.33 1013.48
Thickness
5806 5819 5825 5824 5825 5829 5827 5824 5814 5813 5813 5822 5833 5837 5838 5838 5836 5833 5831 5831 5829 5826 5824 5823 5821 5819 5818 5815 5813 5811 5805 5800 5796 5794 5791 5787 5783 5781 5778 5775 5773 5769 5766 5762
5792 5810 5817 5815 5822 5826 5829 5830 5823 5818 5813 5833 5837 5836 5832 5830 5828 5825 5824 5824 5823 5821 5819 5817 5816 5814 5813 5811 5809 5807 5802 5798 5795 5791 5787 5783 5780 5777 5774 5771 5768 5765 5761 5758
5777 5799 5803 5796 5815 5820 5824 5832 5827 5813 5816 5829 5826 5825 5824 5823 5823 5820 5819 5818 5816 5815 5814 5813 5812 5811 5808 5806 5805 5801 5797 5793 5790 5787 5782 5779 5777 5772 5768 5765 5762 5759 5756 5753
5770 5774 5761 5802 5836 5832 5824 5826 5831 5826 5824 5823 5821 5822 5824 5824 5819 5815 5815 5813 5811 5811 5810 5810 5810 5808 5805 5802 5799 5795 5790 5787 5785 5781 5777 5774 5770 5766 5763 5760 5757 5754 5751 5748
5761 5761 5772 5801 5823 5825 5814 5809 5824 5820 5819 5819 5820 5815 5812 5817 5816 5812 5810 5809 5807 5807 5806 5804 5803 5802 5799 5794 5791 5788 5784 5781 5779 5776 5771 5767 5763 5760 5757 5754 5751 5748 5746 5742
5753 5749 5754 5785 5814 5828 5815 5793 5815 5815 5810 5808 5807 5790 5790 5806 5807 5806 5804 5803 5801 5801 5799 5796 5795 5795 5790 5786 5782 5779 5777 5775 5774 5771 5767 5762 5758 5755 5752 5749 5745 5742 5739 5737
5745 5746 5767 5792 5810 5812 5778 5776 5803 5806 5803 5800 5793 5791 5795 5800 5797 5796 5795 5794 5793 5791 5789 5787 5787 5785 5781 5778 5775 5774 5773 5770 5767 5764 5761 5757 5753 5749 5745 5741 5738 5735 5732 5731
5744 5739 5751 5787 5791 5779 5775 5791 5795 5796 5796 5791 5790 5791 5791 5789 5787 5786 5785 5784 5783 5780 5779 5778 5778 5775 5771 5769 5769 5767 5764 5761 5758 5756 5755 5751 5746 5741 5738 5735 5731 5727 5724 5722
5752 5751 5766 5779 5780 5783 5786 5781 5784 5787 5789 5786 5783 5782 5781 5779 5777 5777 5776 5774 5774 5771 5768 5768 5768 5766 5761 5761 5761 5758 5754 5750 5749 5746 5744 5741 5737 5732 5729 5727 5724 5720 5717 5714
5745 5752 5762 5769 5771 5773 5776 5775 5779 5781 5781 5779 5775 5774 5772 5769 5768 5767 5766 5764 5764 5761 5757 5756 5757 5756 5754 5752 5751 5747 5743 5741 5739 5736 5733 5731 5728 5725 5721 5717 5714 5712 5709 5707
5734 5742 5749 5756 5760 5763 5767 5770 5771 5772 5772 5771 5768 5765 5763 5759 5758 5757 5756 5755 5754 5750 5747 5746 5745 5744 5745 5744 5741 5737 5734 5732 5729 5727 5724 5720 5717 5713 5711 5707 5704 5702 5701 5699
5720 5732 5731 5737 5750 5756 5755 5756 5759 5759 5758 5760 5759 5755 5753 5750 5749 5747 5745 5744 5742 5740 5739 5737 5736 5735 5735 5734 5731 5727 5724 5722 5720 5718 5715 5712 5707 5703 5700 5698 5695 5692 5691 5690
5724 5731 5732 5737 5743 5746 5746 5747 5749 5748 5747 5746 5746 5745 5742 5739 5738 5737 5735 5733 5731 5730 5729 5728 5726 5725 5725 5725 5722 5719 5715 5713 5712 5709 5706 5704 5701 5697 5691 5687 5684 5682 5682 5680
5716 5719 5719 5724 5729 5734 5736 5737 5738 5737 5737 5736 5735 5734 5732 5729 5728 5726 5725 5725 5723 5722 5720 5719 5717 5716 5716 5716 5713 5710 5708 5705 5703 5701 5699 5697 5694 5691 5688 5683 5679 5676 5673 5671
5706 5710 5711 5716 5719 5722 5723 5724 5722 5722 5723 5723 5723 5722 5720 5718 5717 5716 5717 5716 5715 5712 5710 5709 5708 5706 5707 5706 5704 5701 5699 5697 5695 5694 5692 5689 5687 5685 5683 5680 5676 5673 5669 5665
5697 5702 5704 5705 5705 5707 5709 5709 5708 5709 5710 5710 5710 5710 5710 5709 5707 5707 5707 5706 5703 5701 5700 5699 5698 5698 5698 5696 5694 5692 5689 5688 5686 5685 5684 5681 5679 5677 5675 5673 5671 5668 5664 5661
5684 5686 5689 5691 5693 5695 5697 5698 5699 5700 5699 5699 5699 5700 5700 5699 5697 5696 5697 5697 5695 5693 5692 5691 5690 5689 5688 5687 5685 5684 5682 5680 5677 5677 5676 5674 5671 5669 5667 5665 5662 5660 5659 5655
5681 5683 5684 5684 5685 5685 5687 5689 5690 5690 5689 5690 5690 5690 5689 5687 5686 5686 5687 5687 5686 5684 5683 5682 5682 5680 5679 5678 5676 5675 5674 5672 5671 5669 5667 5665 5663 5662 5660 5658 5655 5653 5650 5647
5674 5676 5677 5678 5678 5679 5679 5680 5682 5682 5682 5682 5681 5680 5680 5680 5679 5679 5680 5678 5676 5673 5674 5674 5671 5670 5669 5668 5666 5665 5665 5664 5662 5660 5658 5655 5654 5654 5653 5651 5649 5646 5643 5639
5665 5668 5670 5670 5671 5672 5671 5673 5674 5674 5675 5675 5674 5673 5672 5672 5672 5672 5672 5670 5670 5669 5668 5666 5663 5662 5660 5659 5657 5657 5656 5656 5654 5652 5650 5649 5647 5646 5645 5644 5641 5638 5635 5633
5656 5659 5660 5661 5662 5664 5665 5666 5666 5666 5666 5667 5666 5665 5664 5664 5665 5664 5663 5662 5662 5662 5661 5657 5655 5654 5652 5650 5647 5648 5649 5647 5646 5644 5643 5641 5640 5639 5637 5636 5633 5631 5628 5625
5647 5649 5651 5653 5654 5655 5657 5659 5659 5659 5659 5659 5659 5659 5658 5657 5657 5657 5656 5655 5655 5652 5652 5650 5648 5645 5643 5641 5641 5642 5641 5640 5639 5638 5637 5635 5634 5632 5630 5627 5625 5623 5621 5618
5638 5641 5643 5645 5646 5647 5649 5651 5651 5652 5652 5652 5652 5652 5651 5651 5651 5650 5648 5649 5649 5644 5644 5643 5640 5637 5635 5634 5635 5634 5633 5631 5631 5631 5630 5629 5627 5626 5623 5621 5618 5616 5614 5611
5631 5633 5635 5638 5640 5640 5640 5643 5645 5646 5647 5647 5647 5647 5647 5645 5645 5645 5645 5641 5639 5636 5636 5631 5629 5628 5626 5628 5627 5627 5625 5625 5624 5624 5623 5621 5619 5618 5615 5613 5611 5609 5607 5603
5625 5628 5630 5631 5633 5634 5635 5637 5638 5639 5640 5641 5642 5642 5642 5641 5639 5640 5638 5635 5631 5629 5628 5624 5622 5620 5620 5621 5621 5620 5618 5618 5617 5616 5614 5612 5610 5608 5606 5604 5601 5599 5596 5592
5621 5623 5626 5627 5629 5630 5632 5633 5632 5633 5634 5634 5635 5636 5636 5636 5635 5633 5632 5629 5627 5623 5623 5621 5618 5615 5616 5616 5615 5614 5613 5611 5610 5608 5606 5604 5601 5599 5596 5594 5591 5589 5586 5582
5617 5620 5621 5623 5625 5628 5629 5630 5628 5628 5629 5629 5628 5629 5629 5629 5628 5626 5625 5623 5622 5619 5618 5617 5615 5614 5613 5611 5610 5609 5608 5606 5604 5603 5600 5597 5594 5591 5588 5585 5582 5579 5575 5571